カタログに戻る

COSMOS 723

運用中軍事LEO
NORAD 7718·PAYLOAD·🇷🇺 Russia

打ち上げ Apr 2, 1975 から Baikonur Cosmodrome

Loading…

次のパス (今後24時間)

TLE

最新Source: Space-Track

元期: Sep 14, 2026, 11:00 UTC

1 07718U 75024A   26257.45853491 -.00000093  00000-0 -10120-5 0  9995
2 07718  64.7165  59.7555 0057053 315.7638  43.8868 13.89667732611189

AllMySatでCOSMOS 723をリアルタイム追跡

Download on the App Store